www.pogodaiklimat.ru

Погода и климат >> Архив погоды >> Аргентина >> La Rioja


ПОГОДА в La Rioja

  • Прогноз погоды в La Rioja
  • Монитор погоды в La Rioja
  • Климат города

АРХИВ ПОГОДЫ в La Rioja

Время (UTC), дата Ветер
(напр.,м/с)
 
Видим.   Явления Облачность Т
(С)
Тd
(С)
f
(%)
Тe
(С)
Тes
(С)
Комфортность P
(гПа)
Po
(гПа)
Тmin
(С)
Tmax
(С)
R
(мм)
R24
(мм)
S
(см)
12 11.12 Ю 2 15 км 6/6 1350 м
[Cu Sc]
+27.4 +15.3 48 +30 +33 жарко 1012.1 964.8 +24.6 +31.6
15 11.12 В 2 20 км 5/0
[Cs]
+31.0 +14.9 38 +33 +51 опасность
солнечного
удара
1010.1 963.0
18 11.12 З 3 20 км 6/0
[Cs]
+33.5 +15.0 33 +35 +51 опасность
солнечного
удара
1006.2 959.3
21 11.12 ЮВ 3 20 км 6/1 1500 м
[Cu hum Cs]
+34.3 +22.2 49 +43 +47 опасность
перегрева
1002.3 955.5
00 12.12 В 1 20 км 5/0
[Cs]
+28.7 +17.1 49 +32 +32 душно 1004.4 957.3 +27.4 +35.7
03 12.12 СЗ 3 20 км ясно +25.2 +17.4 62 +29 +29 душно 1005.4 958.2
06 12.12 Ю 1 20 км ясно +23.6 +17.3 68 +27 +27 жарко 1004.4 957.3
09 12.12 Ю 2 20 км ясно +21.9 +13.7 60 +25 +25 комфорт 1004.2 957.1
12 12.12 Ю 2 20 км ясно +24.8 +10.3 40 +26 +32 жарко 1005.3 957.9 +21.6 +28.7
15 12.12 З 2 20 км ясно +31.3 +14.0 35 +33 +54 опасность
солнечного
удара
1003.2 956.1
18 12.12 ЮЗ 1 20 км 4/1 1500 м
[Cu med, cong Ci]
+35.2 +16.2 32 +37 +56 опасность
солнечного
удара
999.9 953.2
21 12.12 ЮВ 4 15 км пыльный позёмок 8/3 1500 м
[Sc Ci]
+38.4 +18.3 31 +42 +44 опасность
перегрева
996.6 950.1
00 13.12 15 км пыль н/о +34.6 +14.7 30 +36 +36 душно 998.4 951.8 +24.8 +39.0
03 13.12 ЮЗ 1 15 км пыль 3/3 1500 м
[Sc]
+29.4 +15.5 43 +32 +32 душно 999.8 953.2
06 13.12 Ю 2 20 км ясно +27.2 +15.8 50 +30 +30 душно 998.5 952.1
09 13.12 ЮЗ 1 20 км 5/0
[Ci fib]
+25.7 +15.1 52 +29 +29 душно 1001.2 954.8
12 13.12 Ю 5 12 км мгла 5/0
[Ci sp]
+26.4 +14.4 48 +29 +32 жарко 1005.4 958.3 +24.0 +34.7
15 13.12 ЮВ 3 12 км мгла 6/0
[Cs]
+31.0 +16.1 41 +34 +48 душно 1006.0 959.1
18 13.12 ЮЗ 4 12 км мгла 6/0
[Cs]
+35.6 +16.4 32 +38 +51 опасность
солнечного
удара
1003.9 957.3
21 13.12 Ю 3 12 км мгла 9/0
[Ac As Cs]
+34.4 +17.1 36 +38 +41 очень
душно
1003.5 956.7
00 14.12 СВ 2 12 км мгла 9/5 1500 м
[Sc Ac As Cs]
+32.4 +16.4 38 +35 +35 душно 1005.6 958.6 +26.4 +37.6
03 14.12 ЮЗ 3 15 км мгла 8/8 1500 м
[Cu Sc]
+30.2 +14.2 38 +32 +32 жарко 1008.4 961.5
06 14.12 Ю 2 12 км мгла 8/8 1500 м
[Sc]
+28.4 +16.2 48 +32 +32 душно 1009.3 962.5
09 14.12 Ю 1 15 км мгла 10/10 1500 м
[Sc]
+25.6 +17.9 62 +30 +30 душно 1010.4 963.3
12 14.12 ЮЗ 2 12 км мгла 9/9
[Sc]
+26.0 +18.0 61 +30 +31 душно 1013.4 966.0 +23.8 +32.5
15 14.12 З 2 12 км мгла 8/4 1500 м
[Sc Ci sp]
+32.2 +10.8 27 +32 +43 жарко 1011.7 964.7
18 14.12 В 1 12 км мгла 4/0
[Ci sp]
+36.6 +11.0 21 +36 +56 опасность
солнечного
удара
1007.6 960.9
21 14.12 СВ 4 12 км мгла ясно +34.6 +13.6 28 +35 +39 очень
жарко
1005.2 958.3
00 15.12 штиль 0 12 км мгла ясно +29.8 +15.4 42 +33 +33 душно 1006.1 958.8 +26.0 +36.8
03 15.12 штиль 0 15 км мгла ясно +11.7 +13.2 100 +11 +11 1007.3 960.3
06 15.12 З 2 15 км мгла ясно +24.7 +12.4 46 +26 +26 жарко 1007.4 960.4
09 15.12 З 1 15 км мгла ясно +21.5 +14.4 64 +24 +24 комфорт 1006.2 959.0
12 15.12 ЮЗ 2 15 км мгла ясно +26.3 +18.4 62 +31 +37 душно 1007.2 959.9 +21.5 +29.8
15 15.12 ЮВ 3 15 км мгла ясно +32.3 +17.8 42 +36 +52 опасность
солнечного
удара
1004.4 957.6
18 15.12 Ю 2 15 км мгла 1/1 1500 м
[Cu med, cong]
+37.0 +19.1 35 +42 +60 опасность
перегрева
1000.2 953.6
21 15.12 В 3 15 км мгла 1/1 1500 м
[Cu hum]
+39.0 +19.2 32 +44 +48 опасность
перегрева
996.2 949.7
00 16.12 СВ 3 15 км мгла 3/3 1500 м
[Sc diur, vesp]
+35.2 +17.0 34 +38 +38 очень
душно
996.6 950.2 +26.0 +39.6
03 16.12 Ю 1 15 км мгла 1/1 1500 м
[Sc diur, vesp]
+31.1 +18.7 48 +36 +36 очень
душно
998.3 952.0
06 16.12 ЮЗ 2 15 км мгла ясно +29.4 +19.2 54 +35 +35 очень
душно
996.6 950.6
09 16.12 Ю 2 15 км мгла ясно +27.7 +19.5 61 +33 +33 очень
душно
996.5 950.5
12 16.12 ЮВ 2 20 км ясно +30.1 +18.9 51 +35 +42 очень
душно
997.4 951.3 +25.8 +35.3
15 16.12 В 3 12 км мгла ясно +36.5 +18.8 35 +41 +57 опасность
перегрева
995.1 949.2
18 16.12 СЗ 3 20 км ясно +42.9 +16.5 22 +45 +62 опасность
перегрева
990.0 944.7
21 16.12 20 км ясно +43.9 +18.3 23 986.9 941.7
00 17.12 С 2 20 км 3/1 1500 м
[Cu hum Ci ing]
+37.9 +19.0 33 +42 +42 опасность
перегрева
989.5 943.9 +30.1 +44.7
03 17.12 З 1 20 км 3/3 1500 м
[Sc]
+31.8 +18.6 46 +37 +37 очень
душно
990.0 944.4
06 17.12 ЮЗ 10 8000 м пыльный позёмок ясно +30.8 +17.7 46 +35 +35 очень
душно
992.5 947.2
09 17.12 Ю 3 15 км мгла 3/3 1500 м
[Sc]
+31.2 +15.1 38 +34 +34 душно 1001.6 955.9
12 17.12 ЮВ 7 7000 м пыльный позёмок 10/4 1500 м
[Sc Ac As]
+26.5 +13.7 45 +29 +29 жарко 1011.2 964.3 +25.8 +38.0
15 17.12 Ю 5 7000 м пыльный позёмок 10/3 1350 м
[Sc Ac As]
+24.4 +8.3 36 +25 +27 комфорт 1015.9 968.2
18 17.12 штиль 0 10 км пыльный позёмок 10/4 1500 м
[Cu hum Ac As]
+27.6 +12.0 38 +29 +33 жарко 1014.0 965.6
21 17.12 СВ 3 15 км пыль 9/1 1500 м
[Cu hum Ac As]
+27.4 +9.1 32 +28 +29 жарко 1011.8 964.5
00 18.12 СВ 2 20 км 6/0
[Ac As]
+24.8 +12.1 45 +26 +26 жарко 1014.1 966.1 +24.0 +28.7
03 18.12 СВ 2 8000 м пыль 8/8 1500 м
[Sc]
+23.4 +13.4 53 +27 +27 душно 1016.5 968.1
06 18.12 В 2 15 км пыль 5/5 1500 м
[Sc]
+21.6 +13.6 60 +24 +24 комфорт 1015.3 967.1
09 18.12 ЮЗ 1 15 км дым 4/1 1500 м
[Sc Ci]
+17.0 +10.5 66 +18 +18 1014.5 966.0

 

Местоположение метеостанции La Rioja (Аргентина): широта -29.38 долгота -66.81 высота над уровнем моря 429 м.

В архиве по умолчанию представлена погода в La Rioja за последнюю неделю. Архивные данные за месяц целиком и за предыдущие месяцы, начиная с января 2011 года, Вы можете получить, выбрав интересующий диапазон дат из раскрывающегося списка и нажав кнопку "Ввод!".

Внимание! Время в таблицах - всемирное. Для получения местного времени необходимо прибавить поправку, которая в La Rioja равна -3 ч.

Смотрите также архив погоды в соседних городах и на ближайших метеорологических станциях:

Погода в Chamical (Аргентина) (120 км)
Погода в San Fernando del Valle de Catamarca (Аргентина) (134 км)
Погода в San Juan (Аргентина) (272 км)
Погода в Santiago del Estero (Аргентина) (304 км)
Погода в Villa de Maria del Rio Seco (Аргентина) (308 км)
Погода в Villa Dolores (Аргентина) (328 км)
Погода в San Miguel de Tucuman (Аргентина) (328 км)
Погода в Cordoba (Аргентина) (329 км)
Погода в Pilar (Аргентина) (378 км)
Погода в Mendoza (Аргентина) (427 км)

Пояснения к столбцам:

Ветер - указаны скорость ветра в м/с - средняя за 10 мин, порывы в срок и между сроками (в фигурных скобках) и направление, откуда дует ветер: С - северный, СВ - северо-восточный, В - восточный, ЮВ - юго-восточный, Ю - южный, ЮЗ - юго-западный, З - западный, СЗ - северо-западный.
Видимость - горизонтальная дальность видимости в метрах или километрах. При видимости от 1 до 10 км при отсутствии осадков обычно наблюдается дымка, при ухудшении видимости до 1 км и менее - туман. В сухую погоду видимость может ухудшаться дымом, пылью или мглою.
Явления - указаны атмосферные явления, наблюдавшиеся в срок или в последний час перед сроком; фигурными скобками обозначены явления, наблюдавшиеся между сроками (за 1-3 часа до срока); квадратными скобками обозначены град или гололедные отложения с указанием их диаметра в мм.
Облачность - указаны через наклонную черту общая и нижняя облачность в баллах и высота нижней границы облаков в метрах; квадратными скобками обозначены формы облаков: Ci - перистые, Cs - перисто-слоистые, Cc - перисто-кучевые, Ac - высококучевые, As - высокослоистые, Sc - слоисто-кучевые, Ns - слоисто-дождевые, Cu - кучевые, Cb - кучево-дождевые. Подробнее классификацию облаков см. в Атласе облаков (PDF).
T - Температура воздуха - температура, измеренная на высоте 2 м над землей.
Td - Температура точки росы - температура, при понижении до которой содержащийся в воздухе водяной пар достигнет насыщения.
f - Относительная влажность воздуха - влажноcть воздуха, измеренная на высоте 2 м над землей.
Te - Эффективная температура - температура, которую ощущает одетый по сезону человек в тени. Характеристика душности погоды. При расчете учитывается влияние влажности воздуха и скорости ветра на теплоощущения человека.
Tes - Эффективная температура на солнце - температура, которую ощущает человек, с поправкой на солнечный нагрев. Характеристика знойности погоды. Зависит от высоты солнца над горизонтом, облачности и скорости ветра. Ночью, в пасмурную погоду, а также при ветре 12 м/с и более поправка равна нулю.
P - Атмосферное давление - приведенное к уровню моря атмосферное давление.
Po - Атмосферное давление - измеренное на уровне метеостанции атмосферное давление.
Tmin - Минимальная температура - минимум температуры воздуха на высоте 2 м над землей.
Tmax - Максимальная температура - максимум температуры воздуха на высоте 2 м над землей.
R - Количество осадков - Количество выпавших осадков за период времени, мм. При наведении курсора мыши на число - период времени, за который выпало указанное количество осадков.
R24 - Количество осадков - Количество выпавших осадков за 24 часа, мм.
S - Снежный покров - Высота снежного покрова, см. При наведении курсора мыши на число - состояние снежного покрова и степень покрытия местности в баллах.